Puerto de Leitariegos

latitud = 42° 59' 50''N | longitud = 006° 25' 07''W
1530 metros sobre el nivel del mar | datos mensuales

Fecha, hora, temperatura, viento dirección y velocidad, humedad y presión.

  • 16-08-2018 02:00:00 | 11.40°C | Noroeste |3.00 km/h | 53.00% | 852.20 hPa
  • 16-08-2018 01:00:00 | 11.90°C | Noroeste |2.00 km/h | 52.00% | 852.30 hPa
  • 16-08-2018 00:00:00 | 12.90°C | Calma |0.00 km/h | 51.00% | 852.20 hPa
  • 15-08-2018 23:00:00 | 14.40°C | Noroeste |9.00 km/h | 75.00% | 852.30 hPa
  • 15-08-2018 22:00:00 | 0.00°C | 0 |0.00 km/h | 0.00% | 0.00 hPa
  • 15-08-2018 21:00:00 | 15.40°C | Noroeste |14.00 km/h | 73.00% | 851.90 hPa
  • 15-08-2018 20:00:00 | 18.80°C | Noroeste |14.00 km/h | 57.00% | 851.90 hPa
  • 15-08-2018 19:00:00 | 20.20°C | Noroeste |18.00 km/h | 52.00% | 852.10 hPa
  • 15-08-2018 18:00:00 | 21.20°C | Noroeste |19.00 km/h | 53.00% | 852.30 hPa
  • 15-08-2018 17:00:00 | 22.20°C | Noroeste |18.00 km/h | 49.00% | 852.30 hPa
  • 15-08-2018 16:00:00 | 22.30°C | Noroeste |18.00 km/h | 46.00% | 852.60 hPa
  • 15-08-2018 15:00:00 | 22.20°C | Noroeste |16.00 km/h | 53.00% | 852.80 hPa
  • 15-08-2018 14:00:00 | 24.20°C | Norte |7.00 km/h | 41.00% | 852.90 hPa
  • 15-08-2018 13:00:00 | 23.60°C | Sur |11.00 km/h | 21.00% | 853.00 hPa
  • 15-08-2018 12:00:00 | 22.30°C | Sudeste |13.00 km/h | 24.00% | 853.10 hPa
  • 15-08-2018 11:00:00 | 20.70°C | Sudeste |14.00 km/h | 22.00% | 853.10 hPa
  • 15-08-2018 10:00:00 | 18.70°C | Sudeste |6.00 km/h | 41.00% | 853.00 hPa
  • 15-08-2018 09:00:00 | 13.60°C | Sudeste |3.00 km/h | 49.00% | 853.00 hPa
  • 15-08-2018 08:00:00 | 11.60°C | Sudeste |4.00 km/h | 43.00% | 852.90 hPa
  • 15-08-2018 07:00:00 | 0.00°C | 0 |0.00 km/h | 0.00% | 0.00 hPa
  • 15-08-2018 06:00:00 | 10.60°C | Sudeste |4.00 km/h | 53.00% | 853.10 hPa
  • 15-08-2018 05:00:00 | 0.00°C | 0 |0.00 km/h | 0.00% | 0.00 hPa
  • 15-08-2018 04:00:00 | 10.80°C | Noroeste |2.00 km/h | 53.00% | 854.00 hPa
  • 15-08-2018 03:00:00 | 10.60°C | Calma |0.00 km/h | 59.00% | 854.40 hPa